Wind_Speed
10 10 9 8 9 10 12 13 13 14 16 17 18 18 17 18 19 20 20 19 21 25 27 27 27 28 29 30 30 29 29 29 29 29 29 29 28 27 26 26 25 24 24 25 25 25 24 23 21 21 20 19 19 19 18 16 14 14 13 13 12 11 10 11 11 9 9 10 8 8 9 8 8 8 8 8 9 9 10 9 9 10 10 10 10
9 9 9 9 9 10 11 12 14 15 16 17 18 19 19 20 20 21 21 21 22 24 27 29 29 30 32 33 33 32 31 30 30 30 30 30 29 28 28 27 26 26 26 26 26 26 26 26 24 23 22 21 20 20 17 15 15 15 15 15 14 13 12 13 13 11 11 10 10 11 11 10 10 10 10 10 11 11 11 11 12 12 12 12 12
8 8 9 9 10 11 12 13 15 16 17 18 19 20 20 21 22 22 21 23 24 25 27 29 31 32 34 35 35 35 34 33 32 32 32 31 30 29 28 28 27 27 27 27 27 27 27 27 26 25 24 21 19 19 16 15 16 17 17 16 14 13 14 15 15 14 13 12 12 12 13 12 13 13 12 12 12 13 13 14 14 14 14 14 14
7 8 8 10 11 12 13 14 15 16 17 18 19 20 20 22 23 22 22 25 26 27 28 29 30 32 34 35 35 35 36 36 35 34 33 32 31 30 30 29 28 28 28 28 28 28 28 27 26 25 25 23 21 21 19 18 19 19 17 15 15 15 16 16 16 14 14 14 13 14 14 14 15 15 15 15 15 15 15 15 16 16 16 16 16
8 9 9 10 12 13 14 15 15 17 18 18 19 19 20 22 22 22 24 27 29 30 31 31 32 35 36 36 36 35 36 38 38 36 35 34 32 31 31 31 30 29 28 28 29 29 29 28 27 26 26 25 24 24 22 21 21 20 17 16 16 17 18 19 18 16 15 15 15 15 15 15 16 16 17 17 17 17 17 17 17 17 17 17 17
10 10 10 10 12 14 14 15 16 17 18 18 19 19 20 21 22 22 25 28 30 32 34 34 36 37 38 37 38 38 37 39 41 39 37 37 35 33 33 32 31 30 28 29 29 28 29 29 28 28 28 27 27 26 24 23 23 22 21 20 20 19 19 20 19 18 18 18 17 17 17 18 18 18 18 18 18 19 19 19 18 19 19 19 18
11 11 10 11 12 13 14 15 17 17 18 17 18 18 20 22 23 23 25 27 30 33 35 37 38 39 39 39 40 41 40 40 41 41 40 39 37 35 35 34 33 31 30 30 29 29 29 28 28 29 29 29 28 27 26 25 25 24 24 23 23 22 21 22 22 22 22 22 21 20 20 20 20 19 19 19 20 20 20 21 21 20 21 21 21
11 11 11 12 12 12 14 15 16 17 16 16 17 18 20 22 22 22 23 25 28 30 33 36 39 41 42 42 42 43 43 42 41 42 43 42 39 37 36 35 34 32 31 30 30 30 30 29 29 29 29 28 28 27 27 26 26 25 25 25 25 24 24 25 25 25 25 25 24 23 23 24 23 22 21 22 22 22 22 23 23 22 21 21 22
11 11 12 12 12 12 12 13 14 15 14 15 16 18 20 20 20 20 22 24 26 28 31 33 37 41 42 43 42 43 45 45 43 44 44 43 41 40 38 35 33 33 32 31 30 30 30 30 29 28 28 28 28 27 27 27 27 27 26 25 26 26 27 27 27 27 27 27 26 26 26 26 25 24 24 24 24 24 23 24 24 24 23 22 22
11 11 11 11 11 10 10 11 11 12 13 14 15 16 17 18 19 20 21 24 26 28 30 32 34 38 41 42 43 44 46 46 46 45 44 43 41 40 39 36 34 34 33 32 30 30 29 30 29 28 28 28 28 27 28 28 29 28 27 26 27 27 28 28 28 27 27 28 28 28 28 28 27 26 27 27 26 26 25 25 25 25 25 26 25
10 10 9 9 9 9 8 9 10 11 13 14 13 13 15 16 18 20 21 23 24 26 30 32 33 35 38 40 41 44 47 47 47 46 44 42 40 39 39 38 36 35 35 33 32 30 30 29 29 28 28 29 28 27 28 29 30 30 29 29 30 30 31 32 31 30 30 30 30 30 31 31 30 29 29 30 30 29 28 28 27 27 28 29 29
9 8 8 8 8 8 8 8 9 11 13 14 14 14 15 16 17 19 20 21 22 23 25 29 33 34 36 37 39 42 46 47 47 45 44 42 40 38 38 38 37 36 36 36 34 33 32 30 29 29 29 29 28 27 28 29 30 30 30 31 32 33 34 35 34 33 34 34 33 33 33 32 32 31 31 31 31 31 31 31 31 31 32 34 34
8 7 7 7 7 7 8 8 9 11 13 14 15 15 15 17 17 18 19 20 20 20 20 22 29 32 32 33 35 38 43 46 46 44 43 42 41 39 37 37 37 37 38 36 34 33 33 32 31 31 30 29 28 28 29 30 31 30 30 31 32 33 34 35 35 35 34 34 35 35 33 33 33 32 32 32 32 33 33 34 35 36 36 36 37
7 7 6 7 7 8 8 9 10 11 13 14 15 15 15 16 17 17 17 19 19 18 17 17 22 28 29 30 32 35 39 42 45 43 42 42 41 40 38 37 36 37 36 35 34 34 33 33 32 32 32 31 30 29 30 31 32 32 31 31 32 33 33 34 35 34 34 34 35 35 34 33 34 33 32 33 33 34 35 35 36 36 36 36 36
7 6 6 7 7 8 8 9 10 11 12 12 14 14 14 15 16 16 17 18 18 18 16 15 17 22 26 28 31 34 36 39 42 43 43 42 41 40 40 38 36 35 35 35 35 34 34 34 32 32 32 32 31 31 32 33 33 33 32 32 32 34 35 36 34 33 33 35 34 34 33 32 31 31 31 32 32 33 34 35 35 35 35 35 35
7 6 6 7 8 8 8 8 9 10 10 11 13 13 13 14 14 15 17 17 17 18 16 14 16 19 23 26 27 30 32 36 39 40 42 42 40 39 40 39 37 36 35 35 35 35 35 35 34 33 32 31 30 31 32 34 34 34 34 33 33 35 37 36 34 33 33 34 32 31 31 31 31 32 32 33 33 33 35 36 37 37 37 38 38
8 6 6 6 7 8 7 7 8 8 9 10 11 11 12 13 13 14 16 16 16 16 15 13 12 14 17 20 23 25 28 32 35 37 39 39 39 38 38 37 37 36 35 35 35 36 36 35 35 35 34 33 33 33 34 35 35 35 36 36 36 37 37 36 35 34 34 35 33 32 33 33 34 34 34 34 35 35 36 38 38 38 39 40 40
9 8 6 6 6 6 7 7 7 8 8 9 10 11 11 12 13 14 14 15 15 14 13 12 7 7 10 12 15 20 24 27 31 34 37 37 38 37 37 36 36 35 34 34 35 34 34 34 34 34 34 33 33 35 36 36 37 38 39 38 38 39 39 39 40 38 37 36 36 35 36 36 35 34 34 35 35 36 37 37 36 36 38 39 39
10 10 8 7 6 6 7 7 7 8 8 8 10 10 10 11 11 13 13 14 14 13 12 10 6 3 8 10 12 15 20 24 26 29 33 35 36 35 35 34 34 34 34 34 33 32 31 31 31 31 31 30 31 33 36 36 38 39 40 39 39 38 38 39 40 39 38 38 37 36 37 37 36 35 34 34 34 35 36 35 34 33 35 36 37
9 10 10 9 9 8 8 8 8 8 8 9 9 9 10 10 10 11 12 13 12 12 10 8 6 4 5 9 12 13 15 19 23 27 31 33 33 32 32 33 34 34 33 32 30 30 30 30 30 30 29 29 30 33 34 35 37 38 38 38 37 35 35 35 36 37 37 36 35 34 34 35 34 33 33 32 32 32 31 31 31 31 32 33 34
8 9 10 10 10 9 9 10 9 8 8 9 10 9 9 9 9 10 11 11 11 10 9 8 6 4 3 4 8 11 12 14 18 22 27 29 29 30 31 32 33 33 31 29 29 29 29 29 29 29 28 29 31 32 32 34 35 37 36 35 34 33 34 34 33 33 33 32 31 31 31 32 31 31 30 30 29 28 28 28 28 29 30 30 31
7 8 9 10 10 10 10 9 10 10 9 8 9 10 10 9 9 9 9 9 9 9 8 7 5 2 2 3 6 9 12 15 18 20 23 25 28 31 31 32 32 29 27 27 26 26 26 27 29 29 29 30 31 31 31 33 34 34 33 32 32 33 33 32 30 31 31 31 30 29 28 28 28 28 27 27 26 27 27 27 26 26 28 29 30
6 6 8 9 10 11 10 9 9 9 9 8 9 9 9 10 9 8 7 8 9 8 6 5 4 2 1 3 6 9 12 16 19 21 24 26 28 28 27 27 26 24 23 23 23 23 25 26 27 28 29 29 30 31 31 31 31 30 29 29 29 30 30 29 29 29 29 28 27 26 25 25 25 25 25 25 25 25 25 24 23 25 27 29 30
5 5 6 7 8 10 11 10 9 9 8 8 8 8 9 9 9 8 7 7 7 7 6 5 4 2 1 2 5 7 10 15 18 21 23 25 26 26 26 26 26 24 23 23 23 24 25 25 25 27 28 28 28 27 26 25 25 25 25 25 26 26 27 27 27 26 26 24 23 22 21 21 22 22 23 24 23 23 22 21 22 24 27 29 30
4 5 5 6 7 8 9 10 10 10 9 8 8 8 8 8 8 8 7 7 7 6 5 5 5 3 2 2 3 4 7 12 15 18 20 22 24 25 27 29 30 30 28 27 26 25 24 23 24 25 24 23 22 21 20 21 22 23 23 23 23 23 23 24 24 24 23 22 21 21 20 20 20 21 22 22 21 22 22 22 23 24 26 27 28
6 6 5 5 6 7 8 8 9 9 9 8 8 8 8 7 7 7 6 6 7 7 6 5 4 3 4 4 4 4 6 9 12 14 16 18 20 21 22 23 25 27 27 26 25 23 20 20 21 21 21 20 19 20 21 21 21 21 21 20 20 20 21 21 21 21 20 20 20 20 19 19 20 20 21 21 21 22 23 23 24 24 24 24 24
6 7 6 5 5 5 6 7 7 8 8 8 8 8 7 7 6 6 5 5 5 6 6 6 5 4 4 5 5 5 6 7 9 11 13 14 15 16 16 17 18 20 21 21 20 18 17 17 18 19 19 19 19 19 19 19 19 19 18 19 18 18 18 18 18 18 18 18 19 19 19 20 20 19 20 20 21 21 22 22 21 21 21 21 21
8 8 8 6 5 4 6 6 7 7 7 8 8 7 7 7 6 5 5 4 4 4 5 6 6 6 5 5 6 6 7 7 8 9 10 12 12 13 14 14 15 16 16 17 17 16 16 17 18 18 18 18 17 17 17 17 17 17 18 18 18 17 18 18 18 19 19 19 18 19 19 18 18 18 19 19 19 19 19 18 18 18 18 18 17
13 11 11 10 7 6 6 7 8 8 8 8 8 7 7 7 6 6 5 5 4 5 5 6 6 6 6 6 6 6 7 7 8 9 10 11 12 13 13 13 13 14 14 15 16 16 16 16 17 17 17 17 16 16 16 17 17 18 18 18 18 18 18 18 18 18 19 18 18 18 18 18 18 18 18 18 18 17 17 16 16 16 16 16 16
18 15 13 13 12 10 9 9 9 9 9 9 8 8 8 7 6 6 6 6 5 5 5 6 6 6 6 7 7 7 7 8 9 10 11 11 12 13 14 14 14 14 15 15 16 16 15 15 16 16 16 16 16 16 17 17 17 18 19 19 19 19 19 18 18 17 17 18 18 18 18 18 18 18 17 17 17 16 15 15 16 15 15 16 15
23 20 17 17 16 15 13 11 10 9 10 10 10 9 9 8 7 7 7 7 7 7 6 6 7 6 7 8 9 9 9 9 10 11 11 11 11 12 13 14 14 15 16 16 16 16 16 16 16 16 16 16 16 17 17 16 17 18 19 19 20 20 19 18 18 18 18 19 18 18 18 17 17 17 17 16 16 16 15 16 16 16 16 16 16
24 23 21 20 20 18 16 15 13 11 11 10 11 11 10 10 9 8 8 8 8 7 7 8 8 7 7 9 10 10 11 11 12 12 13 12 12 12 13 14 15 16 17 17 18 18 18 17 17 17 16 16 16 16 17 16 17 19 19 18 19 21 20 19 18 18 18 18 17 17 17 16 16 16 16 16 16 16 16 17 17 17 17 17 17
28 26 23 23 23 22 19 17 16 14 12 11 11 12 12 12 11 10 10 9 9 9 8 9 9 9 9 9 10 11 12 12 13 14 14 14 14 14 15 15 16 17 19 20 20 21 20 20 19 18 17 17 17 18 18 18 18 19 19 19 21 23 21 18 16 17 17 17 17 17 17 17 17 17 17 17 17 17 17 17 17 17 17 17 17
31 28 27 27 27 24 21 19 18 16 14 13 12 12 13 14 14 13 12 11 10 10 10 10 11 11 11 10 11 12 12 13 13 14 15 15 15 15 15 16 17 18 19 20 21 22 22 21 21 21 21 21 21 21 20 19 19 20 20 21 21 21 19 16 15 16 17 17 17 17 17 18 18 18 18 18 18 18 18 18 17 16 16 16 15
30 30 30 30 28 26 23 20 18 18 17 15 14 13 14 15 15 16 15 13 12 12 12 12 12 12 12 12 12 12 13 13 14 15 15 16 16 16 16 17 17 18 18 19 19 20 21 21 21 22 23 23 23 22 22 22 21 21 20 20 19 18 17 16 16 17 17 18 18 17 18 19 19 19 18 18 18 17 17 16 15 15 15 15 15
35 33 31 26 24 24 23 20 18 17 17 17 17 16 16 16 17 17 17 16 15 14 13 12 12 11 11 11 11 12 12 13 13 14 15 16 16 16 17 17 18 18 18 18 18 19 19 20 21 22 23 22 22 22 22 22 20 20 19 18 17 17 16 17 17 18 18 18 18 18 19 18 18 18 17 17 16 15 15 14 14 14 15 15 15
39 34 28 25 23 23 21 20 18 17 18 19 20 19 19 18 18 18 18 17 17 17 15 13 12 12 12 12 12 12 12 13 13 14 15 15 16 17 17 17 18 18 18 18 18 18 18 19 20 21 21 20 20 20 20 19 19 18 18 17 16 17 17 17 18 18 18 18 18 18 18 17 17 17 16 15 14 14 13 14 14 15 15 15 16
39 31 26 25 26 24 22 22 22 22 22 22 22 21 21 21 20 20 19 18 18 18 17 14 13 14 13 13 13 13 13 14 14 14 15 15 15 16 17 18 18 18 18 19 19 19 19 19 19 20 20 20 20 19 19 18 18 17 17 17 17 18 18 18 18 18 18 18 18 17 17 17 17 16 15 14 13 13 14 14 15 15 16 16 16
37 36 34 31 30 29 27 25 26 28 28 27 25 23 23 23 22 20 19 19 19 19 18 16 15 14 14 13 13 13 14 14 14 15 15 15 15 16 17 17 18 19 19 20 20 20 19 18 18 19 19 19 19 18 18 18 17 17 17 18 18 18 18 18 17 17 18 18 17 17 18 17 16 15 14 13 13 14 14 15 15 16 16 16 16
32 36 39 36 34 33 31 30 30 31 30 29 27 26 25 24 23 21 20 20 20 20 19 18 17 16 14 14 14 14 15 15 15 15 15 15 16 17 17 17 18 18 20 21 21 20 18 18 18 19 18 18 17 17 17 17 18 17 17 18 18 18 18 17 17 17 18 18 18 17 17 16 14 14 13 13 14 14 15 15 16 16 17 16 16
29 29 31 32 32 32 32 33 33 32 30 29 29 28 27 26 24 23 22 21 21 21 20 20 20 18 16 15 16 16 16 16 16 16 15 16 17 18 18 18 18 19 20 21 21 20 18 18 18 17 16 16 16 17 17 17 17 17 18 18 18 18 17 17 17 17 17 17 17 16 15 14 13 13 13 14 14 15 15 15 16 17 18 18 18
31 29 29 30 29 29 30 32 32 30 30 30 28 27 27 27 26 25 24 22 21 21 21 21 21 20 18 18 18 18 17 17 17 17 17 17 18 19 18 18 19 19 20 21 21 20 19 19 17 16 15 16 17 17 18 18 18 18 18 18 18 18 18 17 17 17 16 16 15 14 13 13 13 13 14 15 15 15 15 15 16 18 18 17 17
32 30 30 30 29 29 29 30 29 28 28 29 28 27 28 28 28 26 25 23 22 22 22 23 23 21 20 20 20 19 19 19 18 18 19 19 19 19 18 17 17 17 18 19 20 20 19 18 16 15 16 17 17 18 18 19 19 19 19 18 18 18 18 17 16 15 15 15 14 14 14 14 14 15 15 15 15 15 15 16 18 19 17 15 14
33 32 31 31 31 30 29 29 29 28 28 29 29 29 28 28 28 27 25 23 23 23 22 23 24 23 21 21 21 19 19 20 19 19 20 20 20 19 17 16 16 15 15 16 18 18 17 17 17 16 16 17 18 18 19 19 19 19 19 19 17 17 18 17 16 15 15 15 15 14 15 15 14 15 17 16 14 14 15 16 18 19 18 16 16
32 33 33 32 32 31 29 28 29 29 29 30 31 30 28 28 28 27 25 24 24 23 21 22 24 24 22 21 20 19 20 20 20 20 21 21 20 19 17 16 16 16 15 17 18 17 16 16 17 16 17 18 19 18 18 18 18 19 19 18 16 16 16 17 16 15 15 16 15 15 16 16 15 15 16 17 15 15 16 17 18 18 17 16 16
32 32 32 32 32 33 31 28 29 29 30 30 30 29 27 26 26 26 24 24 24 24 22 23 24 23 22 20 20 20 20 20 20 20 20 20 19 18 17 16 16 16 17 19 20 18 16 16 17 17 17 18 18 17 17 17 18 17 17 16 16 16 16 16 16 15 14 15 15 16 16 17 16 16 16 17 17 16 16 17 17 17 17 16 16
32 31 29 29 30 31 30 27 27 28 30 31 31 29 26 25 26 25 24 24 25 25 24 23 23 22 21 20 19 19 19 19 19 19 19 18 18 18 17 16 17 17 18 21 21 19 17 17 18 18 17 18 18 18 18 17 17 17 16 16 16 16 16 15 14 13 13 14 16 16 17 17 17 17 17 17 17 18 17 17 17 17 17 17 17
31 30 29 27 28 30 29 26 27 30 32 33 33 30 26 25 26 25 25 25 25 25 24 24 23 22 21 19 18 18 18 17 17 17 17 17 17 16 15 16 18 19 19 20 21 20 18 18 19 19 18 18 19 19 18 17 17 17 16 16 16 16 16 15 13 13 14 16 16 17 17 17 17 18 18 18 18 19 19 18 17 17 17 17 18
31 30 29 27 26 27 26 25 26 30 32 33 32 29 26 25 26 25 24 24 25 25 25 24 23 22 20 18 17 17 16 16 16 16 16 16 15 15 15 16 18 19 19 19 20 19 18 18 19 19 19 19 20 19 18 17 17 17 16 16 15 15 16 16 15 14 16 17 17 17 17 17 18 18 18 18 19 20 21 20 19 18 17 17 18
34 32 30 28 27 26 26 27 27 27 29 30 30 28 27 26 25 24 24 24 25 25 25 24 23 22 20 18 16 16 15 15 15 16 16 16 15 15 16 17 18 19 19 19 18 18 18 19 19 20 20 21 20 19 18 18 18 18 17 15 14 15 16 17 16 16 17 18 18 18 18 18 18 18 19 19 20 20 21 21 21 19 18 19 20
32 30 29 28 28 28 29 29 29 28 27 26 26 26 27 26 24 23 22 23 24 25 24 23 22 21 19 17 16 15 14 14 15 16 17 17 16 16 17 17 17 17 17 17 18 18 18 18 19 20 21 21 20 19 18 18 19 19 17 15 15 16 17 18 18 18 18 19 19 19 19 19 19 19 20 21 21 21 21 22 22 22 21 21 22
Wind_Direction
272 273 264 255 250 243 242 247 249 250 252 255 259 263 266 266 262 255 248 242 238 236 238 238 236 232 229 228 228 227 227 226 226 226 225 225 226 226 227 224 222 223 221 219 221 223 226 227 226 225 223 225 230 228 221 222 223 219 218 222 225 227 227 231 238 243 251 262 270 268 268 274 280 277 275 278 282 286 293 301 299 297 298 298 297
273 275 269 266 264 256 250 254 255 253 257 260 261 262 264 264 260 254 250 248 244 240 240 242 242 239 235 231 229 229 228 227 227 227 227 228 228 227 228 228 225 224 224 223 224 224 225 227 228 230 229 228 234 237 230 227 230 227 225 225 225 230 234 234 237 241 245 254 264 270 277 284 284 281 282 289 293 292 295 299 298 297 298 298 298
272 270 268 268 270 268 263 261 260 258 259 260 261 261 259 256 253 252 251 250 248 245 244 244 243 243 242 238 233 231 230 229 229 229 229 229 229 228 228 229 228 227 227 226 226 227 227 226 228 231 233 232 233 238 235 230 234 235 230 228 231 237 240 237 236 239 242 245 250 258 270 280 284 286 286 287 290 290 291 294 296 296 296 297 299
269 266 269 268 267 268 267 265 263 261 261 261 260 259 257 255 254 254 253 251 249 249 249 247 244 245 246 243 238 235 233 232 230 229 230 229 228 228 227 229 229 229 228 227 227 229 229 228 228 230 233 232 231 235 235 231 238 244 240 237 240 241 243 247 247 244 245 249 252 255 262 273 282 287 289 290 291 290 290 291 292 292 293 295 296
281 279 278 274 270 269 269 268 266 262 260 259 259 259 257 259 262 260 257 254 251 250 249 246 243 244 244 243 241 238 236 236 233 229 230 230 229 228 228 228 228 228 228 227 227 229 231 231 231 231 231 230 231 235 236 234 238 244 246 245 246 243 244 251 254 254 254 255 257 261 265 272 277 282 287 289 290 290 290 291 290 290 289 289 291
285 283 277 268 269 270 270 269 265 260 257 256 258 260 260 263 267 265 261 258 255 252 249 245 242 241 242 242 242 239 236 236 235 231 229 230 230 229 229 230 229 229 229 230 230 230 232 233 233 233 232 231 233 237 240 240 240 244 246 245 246 248 249 252 256 261 265 263 262 265 269 273 276 280 284 285 286 288 290 291 291 292 291 289 288
286 284 277 269 268 270 271 269 265 263 261 259 259 262 265 268 270 269 266 262 258 254 251 247 243 241 239 239 240 239 236 234 233 231 228 229 230 230 230 230 230 230 231 232 233 233 234 234 235 236 236 235 236 238 242 245 245 245 246 246 246 249 252 256 259 263 267 269 271 272 273 274 275 278 280 282 285 287 289 290 289 288 289 289 288
292 291 288 282 277 274 270 267 265 263 260 260 262 266 270 271 271 271 270 267 263 258 253 249 246 243 239 236 236 236 236 234 232 230 228 228 229 230 231 231 230 231 231 232 234 235 235 236 236 238 239 238 238 239 242 245 245 245 245 246 248 250 253 258 262 264 266 269 272 274 275 276 277 278 279 280 283 286 289 289 288 287 287 286 286
298 295 293 289 284 279 273 267 264 262 259 261 268 272 274 274 273 275 276 276 271 263 257 252 248 244 240 236 234 232 232 232 231 229 228 227 227 227 230 231 232 233 234 234 235 234 234 235 236 237 239 241 241 240 240 242 244 245 245 248 251 253 255 257 260 264 267 270 272 273 274 277 280 282 283 283 285 287 290 290 288 288 287 283 282
297 296 296 293 288 282 276 269 263 261 264 270 275 277 279 280 279 280 283 284 279 269 261 254 248 245 241 237 234 230 229 229 229 227 227 228 228 228 229 230 232 235 236 236 236 235 234 235 237 237 239 240 241 240 241 242 244 246 248 252 255 257 258 260 261 263 266 268 270 272 275 278 281 283 284 286 288 289 291 290 288 288 287 285 284
298 299 298 293 289 282 276 270 266 267 272 278 283 286 290 291 287 287 291 292 285 276 266 254 247 244 242 239 235 232 229 227 226 225 225 227 229 231 231 231 232 235 236 237 237 237 236 237 238 239 239 240 240 241 243 245 247 250 252 254 257 260 262 264 264 265 266 267 269 272 276 278 280 282 283 285 287 287 287 286 284 284 285 286 286
296 298 296 291 287 283 279 274 273 276 280 285 289 293 298 300 296 295 301 302 294 285 274 256 244 241 241 239 236 234 230 225 223 224 224 224 227 229 231 233 234 236 237 237 238 239 239 239 239 240 241 243 244 245 247 249 251 253 255 256 258 260 262 264 265 266 267 269 271 272 274 276 278 280 281 282 283 284 283 282 281 280 281 283 284
297 296 292 289 286 283 283 283 282 284 288 291 294 298 302 305 303 301 306 311 305 296 285 261 243 238 239 238 234 233 230 223 221 222 222 222 225 227 229 231 233 235 237 238 239 240 240 240 240 240 241 244 247 247 249 252 253 253 254 255 256 259 262 265 266 267 269 271 272 272 273 275 277 277 279 279 280 280 280 279 279 279 280 282 283
304 301 294 289 287 285 285 287 288 290 293 294 298 302 304 307 309 306 307 314 315 307 293 271 249 241 238 235 231 233 230 223 220 221 220 221 224 226 227 229 231 234 237 238 238 240 241 242 243 244 243 243 246 248 250 252 254 254 254 254 254 256 258 260 263 267 270 271 271 273 273 275 277 278 278 279 279 279 279 277 277 277 279 280 281
312 310 300 291 285 283 285 288 291 293 294 295 300 303 305 309 313 315 314 317 322 319 303 280 261 249 242 236 231 231 230 223 220 221 220 220 223 226 228 228 228 232 236 238 239 240 241 243 244 246 246 245 247 250 252 255 257 259 260 260 261 261 260 260 260 262 265 266 269 273 274 275 276 277 278 278 279 280 281 280 280 280 280 280 281
316 315 307 297 287 283 285 289 292 295 297 300 303 304 307 312 316 322 325 324 327 327 314 289 269 254 245 240 233 228 228 225 221 219 218 219 221 225 227 227 227 230 234 239 241 240 241 242 244 247 249 249 250 253 255 256 258 260 262 263 265 266 267 268 267 265 265 265 266 270 272 274 275 276 278 279 280 282 283 283 283 284 283 283 283
314 312 308 303 292 285 286 288 292 296 299 302 304 305 309 314 318 324 328 331 332 331 325 310 284 252 238 236 231 225 225 224 220 216 215 218 221 224 226 227 228 230 234 238 241 241 242 243 245 249 251 253 254 255 256 258 260 261 263 264 265 267 269 271 271 271 270 271 271 271 272 273 274 275 277 279 280 281 280 281 283 283 283 283 284
314 311 308 304 297 289 287 290 293 298 301 302 307 313 314 313 318 323 327 334 339 338 336 336 316 242 227 231 226 223 223 222 219 215 215 218 222 225 227 227 228 231 234 237 240 241 242 244 247 250 252 254 255 255 255 257 259 261 263 264 264 266 269 270 271 272 272 272 273 273 272 273 274 275 277 279 280 280 279 280 282 281 280 280 283
316 312 309 306 302 296 293 294 295 297 302 305 310 318 322 318 316 320 325 334 343 345 344 345 346 257 241 240 228 224 224 220 216 215 216 218 221 225 227 228 229 231 233 234 237 238 240 243 246 249 251 253 255 255 255 257 259 261 263 264 264 266 269 269 269 271 271 270 271 272 270 271 274 276 278 280 281 281 281 281 281 280 279 280 283
320 316 312 308 307 305 303 304 304 302 303 306 308 314 320 321 318 319 324 331 341 349 350 346 347 336 287 249 228 224 223 218 214 215 218 219 221 223 226 228 230 232 233 233 234 236 240 244 247 250 254 257 257 256 256 257 259 261 262 264 266 269 270 268 267 270 270 269 270 271 269 269 273 276 278 280 282 282 281 281 280 279 279 279 284
329 326 320 314 313 314 313 312 311 311 306 303 307 313 316 318 321 323 326 331 337 345 353 353 344 332 314 260 225 216 215 214 215 218 220 220 220 223 228 233 235 235 236 237 237 240 245 249 252 255 258 261 260 257 255 255 258 261 262 263 265 268 268 265 264 267 269 269 271 271 269 269 273 276 278 279 279 278 278 277 277 277 278 281 286
340 341 335 329 325 322 323 323 321 323 322 312 309 314 312 310 319 327 329 332 337 340 348 356 354 321 265 232 216 212 212 215 217 218 218 217 219 223 228 234 238 238 239 241 242 245 250 253 256 257 259 260 261 258 256 256 258 260 261 261 262 262 262 261 260 263 266 267 269 271 270 270 272 274 275 276 276 277 278 278 278 281 284 286 288
340 349 347 344 341 334 332 333 331 331 334 331 323 318 315 312 316 323 329 334 339 343 345 349 356 353 274 210 206 209 212 215 216 217 216 217 219 223 229 237 242 242 242 243 244 247 250 251 253 256 259 259 259 258 258 257 257 258 259 258 258 257 257 257 259 262 265 266 269 271 270 269 270 273 274 275 277 280 282 282 283 284 284 284 284
330 348 353 351 350 345 341 340 340 338 340 342 337 328 325 323 318 315 321 330 334 339 342 340 342 357 340 225 211 206 210 215 217 216 217 219 223 230 238 244 249 250 250 251 250 250 251 250 249 251 255 256 254 254 254 252 251 253 255 254 253 252 253 257 261 263 266 269 270 269 267 267 270 271 273 276 281 284 285 285 284 281 279 280 282
326 344 352 352 350 350 348 345 344 343 343 346 346 340 333 328 320 313 315 320 321 322 326 330 333 335 322 277 231 203 205 214 217 218 221 224 228 234 239 242 245 248 251 254 255 255 254 250 245 245 246 245 242 244 246 248 249 252 254 254 253 254 256 258 260 262 265 267 268 268 268 268 270 272 276 280 284 285 286 285 284 283 283 285 288
321 327 339 348 343 343 347 347 347 346 345 344 344 346 343 334 325 320 316 313 313 313 314 314 313 309 302 288 264 228 205 205 211 218 225 230 231 232 235 236 236 238 241 246 251 252 250 245 240 237 236 234 234 236 240 245 250 254 256 256 256 256 257 258 260 262 264 266 268 271 272 273 274 277 281 283 284 286 288 290 291 293 294 295 297
299 308 313 326 332 333 337 339 342 343 343 340 338 340 342 339 335 328 316 306 305 309 310 306 296 285 282 278 268 254 236 223 222 225 230 234 233 230 230 231 230 231 235 240 244 244 240 236 234 234 235 237 239 240 241 243 247 250 251 251 251 253 256 260 263 266 267 270 273 276 277 278 279 280 282 285 289 293 296 298 300 302 304 305 306
272 284 288 291 298 312 319 324 330 332 332 332 332 331 332 334 338 336 322 306 296 292 291 289 284 278 271 264 256 252 247 244 242 240 237 237 236 232 230 231 232 233 235 237 238 236 234 232 233 235 238 240 242 243 243 243 244 245 247 249 252 255 258 262 265 269 272 275 276 277 278 277 278 280 284 288 292 295 296 299 302 306 308 311 313
261 264 271 270 265 271 285 297 308 312 313 315 318 320 322 325 329 329 322 314 304 291 275 267 267 267 265 262 256 252 249 245 245 244 242 238 237 238 237 235 235 235 234 234 236 236 237 237 238 240 243 244 245 246 247 248 249 251 254 256 258 260 263 267 271 274 276 277 276 276 276 276 278 282 286 288 290 291 294 298 303 308 311 313 315
254 255 260 262 260 257 262 274 287 292 295 298 299 303 308 311 313 311 307 306 305 294 280 269 263 258 256 256 257 257 254 249 246 245 245 243 241 240 238 237 237 238 238 238 239 240 242 242 243 244 246 247 247 248 249 251 254 257 259 261 264 266 269 273 275 276 276 276 275 275 275 277 280 282 282 283 285 288 292 297 301 305 309 311 313
250 251 252 255 256 256 257 262 269 276 281 283 283 284 288 292 295 294 293 295 295 290 286 282 275 267 257 252 252 254 253 252 252 249 248 247 243 239 237 236 236 238 240 241 242 243 244 244 244 245 247 249 251 251 250 250 253 257 260 263 266 267 268 270 273 274 273 273 274 274 275 277 277 277 278 281 285 288 292 296 300 303 306 309 311
250 247 246 249 251 252 254 257 260 263 268 271 272 273 275 277 282 284 285 287 286 282 282 281 279 276 267 257 255 253 249 249 252 252 252 252 248 244 243 240 239 240 243 245 246 247 247 246 247 247 247 250 253 254 252 250 252 255 259 263 265 266 267 268 269 268 268 271 274 277 277 276 276 278 281 284 287 290 294 297 300 304 306 307 307
251 243 242 247 248 247 248 252 255 257 259 261 263 266 267 269 271 273 275 279 280 278 276 274 272 273 270 264 262 260 256 253 252 252 253 254 252 251 249 245 243 243 243 245 247 249 249 248 248 248 248 247 248 251 253 254 256 259 262 265 267 270 272 270 266 265 269 275 277 277 277 278 280 282 285 287 289 292 295 298 302 304 304 304 305
254 247 243 243 245 245 245 248 253 256 256 258 260 263 266 267 268 269 270 271 275 276 274 271 267 265 264 261 259 258 258 256 254 253 254 253 252 252 251 249 247 246 245 246 248 249 250 249 249 249 250 248 249 253 256 258 261 264 266 266 268 271 273 271 268 271 275 277 276 276 277 279 281 284 285 286 289 292 295 299 302 303 303 303 304
254 252 249 244 242 240 237 237 245 253 258 263 266 267 268 269 269 269 269 270 272 275 277 277 273 267 264 263 259 255 254 252 251 251 252 252 252 252 250 250 249 248 247 247 247 248 250 250 249 250 251 252 254 257 258 260 261 261 262 263 264 266 268 270 272 274 274 274 273 274 275 278 281 283 284 285 288 292 296 299 301 303 305 306 306
252 257 264 265 260 253 247 243 242 246 254 263 268 270 272 272 271 269 268 268 267 268 271 276 277 274 271 268 263 257 253 251 250 250 251 251 252 252 251 251 250 249 248 248 248 248 249 249 249 251 253 255 256 257 257 259 259 258 259 260 261 262 265 269 272 273 273 273 273 274 276 279 281 282 284 287 290 293 295 297 300 303 305 306 307
258 265 275 280 277 273 273 273 268 258 253 256 262 268 272 272 272 271 269 267 265 265 265 268 272 274 275 273 268 263 259 257 257 257 256 255 254 253 253 253 253 253 252 252 252 252 252 251 251 252 253 254 255 256 257 258 258 259 260 260 260 263 267 269 271 272 272 272 274 275 277 279 280 282 284 286 287 288 290 294 298 302 304 304 306
265 272 278 278 275 272 273 276 277 272 265 260 259 263 267 268 269 270 268 265 263 264 265 266 268 272 275 275 273 271 268 267 267 266 265 263 260 258 257 257 256 256 256 254 253 253 253 253 253 252 252 251 250 252 255 256 256 257 258 258 260 263 266 268 270 271 271 272 274 275 276 278 279 281 280 279 280 284 288 293 298 301 301 303 305
267 267 268 273 275 271 268 267 266 265 264 262 259 259 261 262 264 265 264 261 260 261 263 263 263 265 269 272 274 273 271 270 270 269 268 268 268 266 264 262 260 258 256 255 254 253 252 251 251 250 249 249 249 250 251 252 252 252 252 254 258 262 265 267 269 270 271 272 272 273 275 276 275 274 273 275 279 285 290 294 298 299 300 303 306
265 262 262 266 269 268 266 264 260 256 254 255 256 257 257 257 258 259 259 257 256 258 259 260 261 261 261 263 266 268 268 270 272 271 269 268 268 269 268 267 265 261 257 256 256 255 253 250 249 249 249 250 250 249 248 248 249 249 250 254 258 261 263 265 266 266 268 271 272 273 273 271 269 269 272 277 283 288 293 297 299 299 300 302 303
260 260 260 263 265 267 269 269 266 260 253 249 250 252 253 254 255 256 256 256 256 256 256 257 259 261 261 260 260 262 266 269 271 271 270 270 269 269 269 267 266 263 260 258 257 256 254 252 249 249 249 249 248 248 247 247 248 250 253 256 258 259 260 261 263 265 267 270 271 272 269 266 267 270 275 280 285 289 294 296 297 298 300 302 302
255 255 257 259 263 268 271 272 270 265 257 252 249 249 253 255 256 255 255 255 255 255 255 254 256 259 261 260 260 261 265 267 269 270 271 271 271 272 272 269 266 262 260 259 256 254 254 253 250 247 247 247 248 248 249 249 250 252 255 258 259 260 260 260 261 265 268 268 268 267 265 265 268 272 276 281 285 289 291 291 291 292 295 299 302
252 251 255 259 262 265 268 271 270 264 259 256 254 253 254 256 257 256 257 257 256 255 255 254 254 256 258 259 260 262 265 267 268 269 269 270 271 273 273 270 265 261 259 257 254 251 249 248 248 247 247 248 250 251 252 253 256 258 260 261 261 261 262 262 263 264 266 265 264 263 263 266 270 273 276 280 284 288 289 288 289 294 301 308 309
254 250 251 255 259 262 265 269 269 264 257 255 255 254 255 256 257 258 259 260 259 256 253 252 254 256 257 258 260 262 264 266 267 267 268 270 272 273 271 265 257 255 254 253 252 249 245 243 245 247 248 250 252 253 255 257 260 263 264 265 263 262 263 264 264 262 261 261 261 261 263 267 270 274 279 284 288 288 286 286 290 298 306 312 311
257 252 249 251 256 259 261 263 266 263 256 252 252 253 254 257 258 257 258 260 260 256 250 250 254 257 258 259 261 261 261 263 265 267 269 271 273 273 271 263 252 248 249 250 249 247 243 242 245 247 248 250 253 254 256 258 260 261 263 265 265 263 262 262 262 258 256 258 260 262 264 269 272 275 281 287 289 287 287 290 294 299 303 307 306
257 254 250 249 253 257 259 261 262 259 252 249 251 253 255 257 257 257 256 257 257 254 249 248 251 255 256 257 259 259 260 262 265 268 271 272 271 270 267 259 249 245 247 249 249 248 246 246 249 250 251 254 257 258 258 260 260 260 261 265 267 265 262 261 260 258 256 258 262 265 268 273 277 278 280 283 285 286 288 291 294 296 299 302 301
260 260 254 248 248 253 257 259 258 253 248 247 249 251 254 256 257 256 254 252 250 249 250 250 251 252 253 253 254 257 259 263 267 270 271 271 269 266 260 251 244 242 245 248 249 247 246 249 255 256 256 257 258 259 260 261 261 261 262 264 265 264 263 260 258 257 255 257 262 266 270 274 278 280 281 283 285 288 290 291 293 296 301 304 305
260 265 263 254 247 248 252 253 250 245 243 244 246 247 251 254 254 252 251 249 245 244 247 251 252 253 253 253 253 256 259 264 268 269 269 268 267 263 255 246 242 242 245 250 253 252 250 252 258 261 259 258 259 261 263 264 263 261 260 261 261 261 261 259 255 252 253 256 261 266 270 274 277 279 282 285 288 290 293 294 296 299 302 305 305
258 262 265 260 252 248 249 250 246 242 240 240 240 242 244 246 249 250 250 247 245 244 246 249 251 253 254 255 256 258 261 264 265 265 265 264 263 260 254 248 245 246 248 252 257 258 254 252 256 260 262 262 263 264 265 264 261 259 260 260 259 257 257 258 258 256 257 261 264 267 270 273 275 278 282 286 288 289 291 292 292 294 296 298 300
257 258 261 261 255 249 249 251 250 247 243 238 235 236 238 240 243 248 250 247 245 245 246 246 248 251 254 256 258 261 265 268 267 264 263 263 262 260 257 253 250 251 252 254 256 255 251 249 252 257 260 262 265 266 265 262 261 261 262 260 256 253 254 258 261 262 264 267 269 270 272 274 276 279 283 284 285 285 287 288 289 290 293 296 298
256 257 260 260 253 244 241 243 243 241 239 235 234 238 243 243 242 246 249 246 243 243 244 245 246 248 251 255 259 262 266 268 267 264 264 265 264 263 260 257 254 254 255 256 254 253 252 251 252 255 258 261 264 265 264 262 262 265 266 260 253 250 254 258 262 264 267 269 272 273 275 277 279 281 283 285 286 287 288 288 290 292 295 298 299
Height
3152 3153 3155 3156 3158 3160 3161 3162 3164 3165 3166 3168 3169 3170 3172 3173 3174 3176 3177 3178 3178 3179 3181 3182 3183 3184 3184 3185 3186 3187 3188 3189 3190 3192 3194 3196 3198 3200 3201 3203 3205 3207 3209 3211 3213 3215 3216 3217 3219 3221 3222 3222 3224 3225 3226 3226 3226 3225 3226 3228 3229 3230 3231 3232 3232 3232 3232 3232 3232 3232 3232 3232 3232 3232 3233 3233 3233 3233 3232 3232 3232 3232 3232 3232 3232
3152 3152 3153 3154 3156 3157 3159 3160 3162 3163 3164 3165 3166 3168 3169 3170 3171 3172 3173 3174 3175 3176 3178 3178 3179 3180 3181 3181 3182 3184 3185 3187 3188 3189 3191 3193 3195 3197 3199 3201 3203 3205 3207 3209 3211 3213 3214 3215 3217 3218 3220 3221 3222 3224 3224 3225 3225 3225 3226 3227 3228 3229 3230 3231 3231 3231 3231 3231 3231 3231 3230 3231 3231 3231 3232 3232 3232 3231 3231 3231 3231 3231 3231 3231 3231
3152 3152 3153 3153 3154 3155 3157 3158 3159 3160 3161 3162 3164 3165 3166 3167 3168 3169 3170 3170 3171 3172 3173 3174 3175 3176 3177 3178 3180 3181 3182 3183 3185 3186 3188 3190 3192 3195 3196 3198 3201 3203 3205 3207 3209 3210 3212 3213 3215 3216 3218 3219 3221 3222 3222 3223 3224 3225 3226 3226 3227 3227 3228 3229 3229 3230 3230 3231 3231 3230 3230 3230 3230 3230 3230 3231 3231 3230 3230 3230 3230 3230 3230 3230 3230
3151 3152 3152 3153 3153 3154 3155 3156 3156 3156 3158 3159 3160 3161 3162 3163 3165 3166 3167 3167 3167 3168 3169 3170 3171 3172 3173 3174 3177 3179 3179 3180 3182 3184 3185 3187 3190 3192 3194 3196 3198 3200 3202 3204 3206 3208 3209 3211 3213 3214 3216 3217 3219 3220 3220 3221 3222 3223 3224 3225 3225 3226 3226 3226 3227 3228 3229 3229 3229 3229 3229 3229 3229 3228 3229 3229 3229 3229 3229 3229 3229 3229 3229 3228 3228
3149 3149 3150 3150 3151 3152 3152 3153 3153 3154 3155 3156 3157 3158 3158 3159 3161 3163 3162 3162 3163 3163 3164 3165 3166 3167 3168 3170 3172 3174 3176 3177 3178 3181 3182 3184 3187 3189 3191 3193 3195 3197 3199 3201 3203 3205 3207 3208 3210 3212 3213 3215 3216 3217 3219 3220 3221 3222 3222 3222 3223 3224 3224 3225 3226 3226 3227 3227 3228 3228 3228 3228 3228 3228 3227 3227 3227 3227 3227 3228 3227 3227 3227 3227 3227
3147 3148 3149 3149 3149 3150 3151 3151 3152 3152 3153 3154 3154 3154 3155 3155 3156 3157 3157 3157 3158 3158 3158 3160 3161 3162 3163 3165 3167 3169 3171 3173 3174 3177 3179 3181 3184 3186 3188 3190 3192 3194 3196 3198 3200 3202 3204 3205 3207 3209 3210 3212 3214 3215 3216 3218 3219 3220 3221 3221 3222 3222 3223 3223 3224 3224 3225 3225 3226 3226 3226 3226 3226 3226 3226 3226 3225 3225 3225 3225 3225 3225 3225 3225 3224
3146 3147 3148 3148 3149 3149 3149 3149 3150 3150 3151 3151 3151 3152 3152 3152 3152 3153 3153 3153 3152 3152 3153 3154 3155 3156 3157 3160 3161 3163 3165 3167 3170 3173 3175 3177 3180 3183 3185 3187 3189 3192 3194 3195 3197 3199 3201 3203 3204 3206 3207 3209 3211 3213 3214 3215 3216 3218 3219 3220 3220 3220 3221 3221 3222 3222 3222 3223 3223 3224 3224 3224 3225 3225 3224 3224 3223 3223 3223 3223 3223 3223 3222 3222 3221
3145 3146 3146 3147 3147 3147 3148 3147 3148 3148 3148 3148 3149 3149 3149 3149 3149 3148 3148 3148 3148 3148 3148 3148 3149 3149 3151 3154 3156 3158 3160 3162 3165 3168 3171 3173 3176 3179 3182 3184 3186 3188 3191 3192 3194 3196 3198 3200 3201 3203 3205 3206 3208 3210 3211 3213 3213 3215 3216 3217 3217 3218 3218 3219 3219 3220 3220 3221 3221 3222 3222 3222 3222 3222 3222 3222 3221 3221 3221 3220 3220 3220 3220 3219 3218
3144 3144 3145 3145 3145 3145 3145 3145 3145 3145 3145 3145 3145 3146 3145 3145 3145 3145 3144 3143 3143 3142 3142 3142 3142 3143 3144 3147 3150 3151 3153 3156 3159 3162 3165 3169 3173 3175 3178 3181 3184 3186 3188 3190 3191 3193 3195 3197 3198 3200 3202 3204 3205 3207 3208 3210 3210 3212 3213 3213 3214 3214 3215 3216 3216 3217 3217 3218 3218 3219 3219 3219 3219 3220 3220 3219 3219 3219 3218 3217 3216 3216 3215 3215 3215
3143 3143 3143 3143 3143 3143 3143 3143 3143 3143 3143 3142 3142 3142 3142 3142 3141 3141 3140 3139 3137 3136 3136 3136 3136 3137 3138 3140 3143 3145 3147 3151 3154 3157 3161 3165 3169 3172 3175 3178 3180 3182 3185 3187 3188 3190 3192 3193 3195 3197 3199 3200 3202 3204 3205 3206 3208 3209 3210 3211 3211 3211 3212 3212 3213 3214 3215 3215 3215 3216 3216 3216 3217 3217 3217 3217 3216 3215 3215 3214 3213 3212 3211 3210 3211
3141 3141 3141 3141 3141 3141 3141 3141 3141 3141 3140 3139 3139 3139 3139 3138 3137 3137 3136 3134 3132 3130 3129 3129 3130 3131 3132 3134 3137 3139 3142 3145 3149 3153 3157 3161 3165 3168 3171 3174 3177 3179 3182 3184 3185 3187 3189 3191 3192 3194 3195 3197 3198 3200 3202 3203 3205 3206 3207 3208 3208 3208 3208 3209 3210 3211 3211 3211 3212 3212 3212 3213 3213 3214 3214 3213 3213 3212 3211 3210 3209 3209 3207 3206 3206
3140 3140 3140 3140 3140 3140 3139 3139 3139 3139 3138 3137 3136 3135 3135 3135 3134 3133 3131 3130 3127 3125 3123 3123 3124 3126 3127 3129 3132 3134 3137 3141 3146 3149 3154 3158 3162 3165 3168 3171 3174 3176 3178 3181 3183 3185 3186 3188 3190 3191 3192 3194 3195 3197 3198 3199 3201 3203 3203 3204 3205 3205 3205 3205 3206 3207 3207 3208 3208 3209 3209 3209 3210 3210 3210 3209 3209 3208 3208 3207 3206 3205 3203 3202 3202
3139 3139 3138 3138 3138 3138 3138 3138 3138 3137 3136 3135 3134 3133 3132 3132 3131 3129 3128 3126 3123 3121 3119 3118 3119 3121 3122 3125 3128 3130 3133 3138 3143 3147 3150 3154 3158 3161 3164 3167 3169 3172 3174 3177 3180 3182 3183 3185 3187 3188 3190 3191 3192 3194 3195 3195 3197 3198 3199 3200 3201 3201 3201 3202 3202 3203 3204 3204 3204 3204 3205 3206 3206 3206 3206 3206 3205 3204 3203 3203 3202 3201 3200 3199 3198
3137 3137 3137 3137 3137 3137 3136 3136 3136 3135 3134 3134 3133 3132 3131 3129 3128 3126 3125 3123 3120 3118 3116 3115 3116 3117 3119 3121 3124 3126 3129 3134 3139 3143 3147 3151 3154 3158 3161 3163 3165 3168 3171 3174 3176 3178 3180 3181 3183 3185 3187 3188 3189 3190 3191 3192 3192 3193 3195 3196 3196 3197 3197 3197 3198 3199 3200 3200 3200 3200 3202 3202 3202 3202 3202 3202 3201 3200 3199 3198 3197 3197 3196 3195 3194
3136 3136 3136 3136 3135 3135 3135 3134 3134 3133 3133 3132 3131 3130 3129 3128 3126 3124 3122 3121 3119 3116 3114 3113 3114 3114 3116 3118 3120 3122 3125 3130 3135 3139 3143 3147 3150 3153 3156 3159 3162 3165 3167 3170 3173 3175 3176 3178 3180 3181 3183 3185 3186 3187 3187 3187 3188 3189 3191 3193 3193 3194 3194 3194 3194 3195 3196 3195 3195 3196 3197 3198 3198 3198 3198 3197 3196 3195 3194 3193 3192 3192 3192 3190 3190
3135 3135 3135 3134 3134 3134 3133 3133 3132 3132 3131 3130 3129 3128 3127 3126 3124 3123 3121 3119 3117 3115 3113 3111 3111 3112 3113 3115 3117 3120 3123 3127 3132 3137 3140 3143 3146 3149 3152 3155 3158 3161 3164 3166 3169 3171 3172 3174 3176 3178 3180 3182 3183 3184 3183 3183 3184 3185 3186 3188 3189 3189 3190 3191 3192 3192 3192 3191 3191 3192 3193 3194 3194 3194 3194 3193 3192 3192 3190 3188 3188 3188 3187 3186 3185
3134 3134 3134 3133 3133 3132 3132 3132 3131 3130 3129 3128 3127 3126 3125 3124 3123 3122 3120 3118 3116 3114 3112 3110 3109 3110 3111 3113 3115 3119 3121 3124 3129 3133 3136 3139 3143 3145 3148 3152 3154 3157 3160 3162 3164 3166 3168 3171 3172 3174 3177 3179 3180 3180 3179 3179 3180 3181 3181 3182 3183 3184 3186 3188 3187 3187 3188 3188 3188 3188 3189 3189 3189 3190 3190 3189 3189 3188 3186 3184 3183 3183 3182 3181 3180
3133 3133 3132 3132 3132 3131 3131 3130 3130 3129 3128 3127 3126 3125 3124 3123 3122 3121 3119 3117 3116 3114 3112 3111 3110 3111 3112 3113 3115 3118 3120 3122 3126 3130 3133 3136 3140 3143 3145 3148 3151 3154 3157 3158 3160 3162 3165 3167 3168 3170 3173 3174 3175 3175 3175 3175 3176 3176 3176 3177 3179 3180 3182 3183 3183 3183 3183 3184 3184 3184 3184 3184 3185 3185 3185 3185 3185 3183 3181 3180 3179 3178 3177 3176 3176
3132 3132 3131 3131 3130 3130 3129 3129 3128 3128 3127 3126 3125 3124 3124 3122 3121 3120 3118 3117 3116 3114 3113 3111 3111 3112 3113 3114 3115 3117 3119 3122 3126 3129 3132 3134 3138 3140 3143 3145 3148 3150 3152 3154 3156 3159 3161 3162 3164 3166 3168 3169 3170 3170 3170 3171 3171 3171 3171 3173 3174 3176 3178 3178 3178 3178 3179 3179 3179 3180 3180 3180 3180 3180 3180 3180 3180 3179 3177 3176 3175 3173 3172 3172 3171
3132 3131 3130 3129 3129 3129 3128 3128 3127 3127 3126 3125 3124 3123 3123 3122 3121 3119 3118 3117 3116 3114 3113 3112 3112 3112 3113 3113 3115 3117 3120 3122 3126 3129 3131 3133 3136 3138 3140 3143 3144 3145 3148 3152 3154 3155 3157 3158 3160 3162 3163 3164 3165 3166 3166 3166 3166 3165 3166 3168 3169 3171 3173 3173 3173 3173 3174 3174 3174 3175 3175 3176 3176 3176 3176 3176 3175 3174 3173 3171 3170 3169 3168 3167 3167
3131 3130 3129 3128 3128 3127 3127 3126 3126 3125 3125 3124 3123 3123 3122 3121 3120 3119 3118 3117 3116 3115 3114 3113 3112 3113 3113 3114 3115 3118 3120 3123 3125 3128 3130 3132 3134 3137 3139 3140 3141 3143 3147 3151 3152 3153 3154 3156 3157 3159 3160 3160 3160 3161 3162 3162 3161 3160 3162 3163 3165 3166 3166 3167 3168 3168 3168 3169 3170 3170 3171 3171 3172 3172 3172 3172 3171 3170 3169 3168 3166 3165 3164 3163 3163
3131 3130 3129 3128 3127 3127 3126 3125 3125 3124 3124 3123 3122 3122 3121 3121 3120 3119 3118 3117 3116 3115 3114 3114 3114 3114 3114 3115 3116 3118 3120 3122 3124 3127 3129 3131 3133 3135 3137 3137 3138 3141 3146 3149 3150 3151 3152 3153 3155 3156 3156 3156 3156 3157 3157 3157 3156 3156 3157 3159 3160 3160 3161 3162 3163 3164 3165 3166 3166 3166 3167 3167 3168 3168 3168 3167 3167 3165 3164 3164 3163 3162 3161 3160 3159
3130 3129 3128 3128 3127 3126 3125 3125 3124 3123 3123 3122 3122 3121 3121 3120 3119 3119 3118 3118 3117 3116 3115 3115 3115 3115 3115 3115 3116 3118 3119 3121 3123 3126 3128 3130 3132 3133 3135 3135 3136 3139 3143 3144 3146 3148 3149 3151 3152 3152 3152 3152 3152 3153 3153 3153 3152 3153 3154 3155 3156 3156 3157 3158 3159 3160 3161 3162 3162 3162 3163 3163 3163 3164 3164 3163 3162 3161 3160 3159 3159 3158 3158 3157 3156
3129 3128 3127 3127 3126 3125 3125 3124 3123 3123 3122 3121 3121 3120 3120 3119 3119 3118 3118 3118 3117 3116 3115 3115 3115 3115 3115 3115 3116 3117 3119 3120 3122 3124 3126 3128 3130 3131 3132 3133 3134 3136 3138 3140 3142 3144 3146 3147 3147 3147 3147 3147 3148 3148 3149 3149 3149 3149 3150 3151 3152 3153 3154 3155 3155 3156 3157 3157 3158 3158 3159 3159 3160 3160 3159 3159 3158 3158 3157 3156 3155 3154 3154 3152 3151
3127 3127 3126 3126 3125 3124 3123 3123 3122 3122 3121 3121 3120 3120 3119 3119 3118 3118 3117 3117 3117 3116 3116 3115 3115 3115 3115 3116 3117 3118 3119 3120 3121 3123 3124 3126 3127 3129 3130 3131 3132 3134 3136 3137 3138 3140 3141 3142 3142 3143 3143 3143 3144 3144 3144 3145 3145 3146 3147 3148 3149 3150 3151 3152 3152 3152 3153 3153 3154 3154 3155 3155 3156 3155 3155 3155 3155 3153 3152 3152 3151 3151 3149 3148 3146
3127 3126 3125 3124 3124 3123 3122 3122 3121 3121 3120 3120 3119 3119 3119 3118 3118 3117 3117 3117 3117 3116 3116 3116 3116 3115 3115 3115 3116 3118 3119 3120 3121 3122 3123 3124 3125 3126 3127 3128 3129 3131 3133 3134 3135 3136 3137 3138 3138 3138 3139 3139 3140 3141 3141 3142 3142 3143 3144 3145 3146 3147 3147 3148 3148 3149 3149 3150 3150 3150 3151 3151 3151 3151 3151 3151 3150 3149 3148 3147 3146 3145 3144 3143 3142
3124 3125 3125 3123 3123 3122 3120 3120 3120 3119 3119 3118 3118 3118 3118 3117 3117 3117 3116 3116 3116 3116 3116 3115 3116 3116 3116 3116 3116 3117 3118 3119 3120 3121 3122 3122 3123 3124 3125 3126 3127 3128 3129 3131 3132 3133 3134 3135 3135 3135 3135 3136 3137 3138 3139 3139 3140 3141 3142 3142 3143 3143 3144 3144 3145 3145 3146 3146 3146 3147 3147 3147 3147 3147 3147 3146 3145 3145 3144 3143 3142 3141 3139 3138 3137
3121 3122 3123 3122 3121 3120 3119 3118 3118 3118 3117 3117 3117 3117 3116 3116 3116 3116 3116 3116 3115 3115 3115 3115 3115 3116 3116 3116 3117 3117 3118 3118 3119 3120 3120 3121 3122 3123 3123 3124 3125 3126 3127 3128 3129 3130 3131 3132 3133 3133 3133 3134 3135 3135 3136 3137 3137 3138 3139 3139 3140 3140 3140 3140 3141 3141 3142 3143 3143 3143 3143 3143 3143 3143 3143 3142 3142 3141 3140 3140 3139 3137 3136 3135 3134
3120 3119 3120 3120 3119 3118 3117 3116 3116 3116 3115 3115 3115 3115 3115 3115 3115 3115 3114 3115 3115 3114 3115 3115 3115 3115 3115 3116 3117 3117 3118 3118 3118 3118 3119 3119 3120 3121 3122 3122 3123 3123 3124 3125 3126 3127 3128 3129 3130 3131 3131 3132 3132 3133 3134 3134 3135 3136 3136 3136 3136 3136 3136 3137 3137 3138 3138 3139 3139 3140 3140 3140 3140 3140 3139 3139 3138 3138 3137 3137 3136 3135 3133 3133 3132
3119 3118 3118 3117 3116 3116 3115 3114 3114 3113 3113 3113 3113 3113 3113 3113 3113 3113 3113 3113 3113 3113 3113 3114 3114 3114 3114 3115 3115 3116 3116 3117 3117 3117 3118 3118 3119 3119 3120 3120 3121 3121 3122 3123 3124 3125 3126 3127 3128 3128 3129 3129 3130 3131 3131 3132 3132 3132 3132 3133 3133 3133 3133 3134 3134 3135 3135 3135 3136 3136 3137 3137 3137 3137 3136 3136 3135 3135 3134 3134 3133 3132 3131 3130 3129
3115 3116 3114 3113 3113 3113 3112 3111 3111 3111 3111 3111 3111 3111 3111 3111 3111 3111 3111 3111 3111 3111 3111 3112 3112 3112 3113 3113 3113 3114 3114 3115 3115 3115 3116 3116 3117 3118 3118 3118 3119 3120 3120 3121 3122 3123 3123 3124 3125 3126 3126 3127 3127 3128 3128 3128 3129 3128 3128 3129 3129 3130 3130 3131 3131 3132 3132 3132 3133 3133 3134 3134 3134 3133 3133 3133 3132 3132 3132 3131 3130 3130 3129 3128 3127
3111 3111 3110 3109 3109 3109 3108 3108 3108 3108 3108 3108 3109 3109 3109 3109 3109 3109 3109 3110 3110 3110 3110 3110 3110 3110 3111 3111 3111 3112 3112 3112 3112 3112 3113 3114 3114 3115 3116 3116 3117 3118 3118 3119 3119 3120 3121 3122 3122 3122 3123 3124 3124 3124 3124 3125 3125 3125 3125 3126 3126 3126 3127 3129 3129 3129 3129 3130 3130 3130 3130 3131 3131 3130 3130 3130 3129 3129 3128 3128 3128 3127 3126 3125 3124
3106 3105 3104 3104 3104 3104 3104 3105 3104 3105 3106 3106 3106 3107 3107 3107 3107 3107 3107 3108 3108 3108 3108 3108 3108 3108 3108 3108 3108 3108 3109 3110 3110 3110 3110 3110 3111 3112 3113 3113 3114 3115 3116 3116 3117 3117 3118 3119 3119 3119 3120 3120 3120 3121 3121 3121 3122 3122 3123 3123 3123 3123 3125 3127 3127 3126 3127 3127 3127 3127 3127 3128 3128 3127 3127 3127 3126 3126 3125 3125 3124 3124 3123 3122 3121
3098 3097 3096 3096 3097 3099 3100 3101 3102 3102 3103 3103 3104 3105 3105 3105 3105 3106 3105 3106 3106 3106 3106 3106 3106 3106 3106 3107 3107 3107 3107 3107 3107 3107 3107 3107 3108 3109 3110 3110 3111 3112 3113 3113 3114 3114 3115 3115 3116 3116 3116 3117 3117 3117 3118 3119 3120 3120 3121 3121 3121 3121 3122 3123 3124 3124 3124 3124 3124 3125 3125 3125 3125 3124 3124 3124 3123 3123 3122 3122 3121 3121 3120 3119 3118
3090 3089 3088 3087 3089 3092 3094 3096 3098 3100 3101 3101 3102 3102 3103 3103 3103 3103 3104 3104 3103 3103 3104 3104 3104 3104 3104 3105 3105 3105 3105 3106 3106 3105 3105 3105 3106 3106 3107 3108 3108 3109 3109 3110 3111 3111 3112 3112 3112 3113 3113 3113 3114 3115 3116 3117 3118 3118 3119 3119 3119 3119 3120 3120 3121 3121 3121 3122 3122 3122 3122 3122 3122 3121 3121 3121 3120 3120 3119 3119 3118 3118 3117 3116 3115
3082 3083 3085 3087 3090 3093 3093 3094 3095 3097 3098 3100 3100 3100 3101 3101 3101 3101 3101 3101 3101 3101 3101 3102 3102 3102 3102 3102 3103 3103 3104 3104 3104 3104 3104 3104 3104 3104 3105 3105 3106 3106 3106 3107 3107 3108 3108 3109 3109 3110 3110 3111 3112 3113 3113 3114 3115 3115 3116 3116 3116 3117 3117 3117 3118 3118 3119 3119 3119 3119 3119 3119 3119 3119 3118 3118 3117 3117 3116 3116 3115 3115 3114 3113 3112
3077 3083 3088 3090 3093 3094 3095 3096 3096 3096 3096 3097 3098 3098 3098 3099 3099 3098 3098 3098 3098 3098 3099 3099 3099 3099 3099 3100 3100 3100 3101 3101 3101 3102 3102 3102 3102 3102 3102 3102 3102 3103 3103 3104 3104 3105 3105 3106 3106 3107 3107 3108 3109 3109 3110 3111 3111 3112 3112 3113 3113 3113 3114 3115 3115 3115 3116 3116 3116 3116 3116 3116 3116 3116 3115 3115 3114 3114 3113 3113 3112 3112 3111 3110 3110
3077 3084 3089 3091 3091 3092 3093 3095 3096 3096 3095 3095 3095 3096 3096 3096 3096 3096 3096 3096 3095 3095 3096 3097 3097 3097 3097 3097 3097 3097 3098 3098 3098 3098 3098 3099 3099 3099 3099 3099 3099 3099 3100 3100 3101 3101 3102 3103 3103 3104 3104 3105 3106 3106 3107 3108 3108 3109 3109 3110 3110 3111 3111 3112 3112 3113 3113 3113 3113 3113 3113 3113 3113 3112 3112 3112 3112 3111 3111 3110 3109 3109 3108 3107 3107
3079 3084 3087 3088 3088 3088 3089 3090 3090 3090 3091 3092 3092 3093 3093 3093 3094 3094 3094 3094 3093 3093 3093 3094 3094 3094 3095 3095 3095 3095 3095 3095 3095 3095 3095 3095 3095 3095 3095 3095 3095 3096 3096 3096 3097 3098 3099 3100 3100 3101 3101 3102 3103 3104 3104 3105 3106 3106 3107 3107 3108 3108 3109 3109 3109 3109 3109 3110 3110 3110 3110 3110 3110 3109 3109 3109 3109 3108 3108 3107 3107 3106 3106 3105 3104
3078 3081 3082 3083 3083 3082 3084 3085 3084 3084 3086 3088 3089 3089 3090 3090 3091 3091 3091 3091 3091 3090 3090 3091 3091 3092 3092 3092 3092 3092 3092 3092 3092 3092 3092 3092 3092 3092 3092 3092 3092 3092 3092 3092 3093 3094 3096 3096 3097 3097 3098 3099 3100 3101 3101 3102 3103 3104 3104 3105 3105 3106 3106 3106 3106 3106 3106 3107 3107 3107 3107 3107 3107 3107 3107 3106 3106 3106 3106 3105 3104 3104 3103 3102 3102
3075 3077 3077 3077 3077 3077 3079 3080 3080 3082 3083 3084 3084 3085 3086 3087 3088 3088 3088 3088 3088 3088 3088 3088 3088 3088 3089 3090 3089 3089 3089 3089 3089 3089 3089 3089 3089 3089 3089 3089 3089 3089 3089 3089 3089 3090 3092 3093 3093 3094 3095 3096 3097 3098 3099 3099 3100 3101 3102 3102 3102 3103 3103 3103 3103 3104 3104 3104 3104 3104 3104 3104 3104 3104 3104 3104 3104 3104 3103 3103 3102 3101 3100 3099 3099
3071 3073 3073 3073 3073 3073 3075 3076 3076 3077 3078 3078 3078 3080 3082 3083 3084 3085 3085 3085 3086 3086 3086 3085 3085 3085 3086 3087 3086 3086 3086 3086 3086 3086 3086 3086 3086 3086 3086 3086 3086 3086 3086 3086 3086 3087 3088 3089 3090 3091 3092 3093 3094 3095 3096 3097 3097 3098 3098 3099 3099 3100 3100 3100 3100 3100 3101 3101 3101 3101 3101 3102 3102 3102 3101 3101 3101 3101 3101 3100 3099 3099 3098 3098 3097
3066 3068 3069 3069 3069 3070 3071 3072 3072 3073 3073 3074 3075 3076 3078 3080 3081 3081 3082 3082 3083 3083 3083 3083 3082 3083 3084 3084 3083 3083 3083 3083 3083 3083 3083 3083 3083 3083 3083 3083 3083 3083 3083 3083 3083 3084 3085 3086 3087 3088 3090 3091 3092 3093 3093 3094 3095 3095 3095 3096 3097 3097 3097 3097 3097 3098 3098 3098 3098 3099 3099 3099 3099 3099 3099 3099 3099 3099 3098 3097 3096 3096 3096 3096 3095
3061 3063 3064 3064 3065 3066 3068 3069 3069 3070 3070 3071 3072 3074 3075 3077 3078 3078 3079 3079 3079 3080 3080 3080 3079 3080 3081 3081 3080 3081 3081 3080 3080 3080 3080 3080 3080 3080 3080 3080 3080 3080 3080 3081 3081 3081 3083 3084 3084 3086 3087 3088 3089 3090 3091 3092 3092 3093 3093 3093 3093 3094 3094 3094 3094 3095 3095 3095 3096 3096 3096 3097 3097 3096 3096 3096 3096 3096 3095 3095 3094 3094 3094 3094 3093
3056 3057 3059 3060 3061 3062 3064 3065 3065 3066 3067 3069 3070 3071 3072 3073 3074 3075 3076 3076 3076 3077 3077 3077 3076 3076 3077 3078 3078 3078 3078 3077 3077 3077 3077 3077 3077 3077 3077 3077 3077 3077 3078 3078 3079 3080 3081 3082 3082 3084 3085 3086 3087 3088 3089 3089 3090 3090 3090 3090 3090 3091 3091 3091 3092 3092 3093 3093 3093 3094 3094 3094 3094 3094 3093 3093 3094 3094 3093 3092 3092 3092 3092 3092 3091
3051 3051 3053 3055 3057 3058 3059 3061 3061 3062 3063 3065 3067 3068 3069 3070 3071 3072 3073 3073 3073 3074 3074 3074 3074 3074 3074 3075 3075 3075 3075 3075 3074 3074 3074 3074 3074 3074 3074 3075 3075 3075 3076 3076 3077 3078 3079 3080 3080 3081 3082 3083 3084 3085 3086 3087 3087 3087 3088 3088 3088 3088 3089 3089 3089 3090 3090 3091 3091 3091 3091 3091 3091 3091 3091 3091 3091 3091 3091 3090 3090 3089 3089 3089 3089
3048 3048 3049 3050 3052 3054 3055 3056 3057 3059 3060 3062 3064 3065 3066 3067 3068 3068 3069 3070 3070 3071 3071 3072 3071 3071 3072 3072 3072 3072 3072 3072 3072 3072 3072 3072 3071 3071 3072 3072 3073 3073 3074 3074 3075 3076 3077 3078 3078 3079 3080 3081 3082 3083 3084 3084 3084 3085 3085 3086 3086 3086 3086 3086 3087 3087 3088 3088 3088 3088 3088 3088 3088 3088 3088 3088 3088 3088 3088 3087 3087 3086 3086 3086 3085
3045 3045 3045 3045 3046 3049 3051 3053 3054 3056 3057 3059 3061 3062 3062 3064 3065 3065 3066 3067 3068 3068 3069 3069 3069 3069 3069 3069 3070 3069 3069 3069 3069 3069 3069 3069 3069 3069 3069 3070 3070 3071 3072 3072 3073 3074 3075 3076 3076 3077 3078 3078 3079 3080 3081 3082 3082 3082 3083 3083 3083 3083 3083 3084 3085 3085 3085 3086 3086 3086 3085 3085 3085 3085 3085 3085 3084 3084 3084 3084 3084 3083 3083 3083 3082
3041 3041 3041 3042 3043 3046 3048 3050 3051 3053 3054 3056 3058 3059 3059 3060 3061 3062 3063 3064 3065 3066 3066 3067 3067 3067 3067 3067 3067 3067 3067 3067 3067 3067 3066 3067 3067 3066 3067 3067 3068 3069 3069 3070 3070 3071 3073 3074 3074 3075 3075 3076 3077 3078 3079 3079 3080 3080 3080 3081 3081 3081 3081 3081 3082 3083 3083 3083 3083 3083 3083 3083 3082 3082 3082 3082 3081 3081 3080 3080 3080 3081 3081 3080 3079
3037 3038 3039 3040 3042 3044 3045 3046 3047 3049 3050 3052 3054 3054 3055 3056 3058 3059 3060 3061 3062 3063 3064 3064 3064 3064 3064 3064 3064 3064 3064 3064 3064 3064 3064 3064 3064 3064 3065 3065 3066 3066 3067 3068 3069 3070 3070 3071 3072 3073 3073 3073 3074 3075 3076 3076 3076 3077 3078 3078 3079 3079 3079 3079 3079 3080 3080 3080 3080 3080 3080 3080 3080 3079 3079 3079 3078 3078 3077 3077 3077 3077 3077 3077 3076
3034 3035 3036 3037 3038 3040 3040 3041 3042 3044 3045 3047 3049 3051 3052 3054 3055 3056 3057 3058 3059 3060 3061 3062 3062 3062 3062 3062 3062 3062 3062 3062 3062 3062 3062 3062 3062 3062 3062 3063 3063 3064 3065 3066 3066 3067 3068 3069 3069 3070 3070 3070 3071 3072 3072 3073 3073 3074 3075 3076 3076 3076 3076 3077 3077 3077 3077 3077 3077 3077 3077 3077 3077 3076 3076 3075 3075 3075 3074 3074 3073 3073 3073 3073 3073